| time (UTC) | temp F | wind direction | speed MPH | gust MPH | rain 1hr in | rain 24hr in | rain mn in | humidity % | barometer mb |
| 20260506062359 | 52 | 30 | 12.0 | 21.0 | 0.00 | 0.00 | 0.00 | 73 | 1010.9 |
| 20260506061859 | 53 | 30 | 12.0 | 21.0 | 0.00 | 0.00 | 0.00 | 73 | 1010.9 |
| 20260506061359 | 53 | 30 | 12.0 | 21.0 | 0.00 | 0.00 | 0.00 | 73 | 1011.1 |
| 20260506060900 | 53 | 30 | 12.0 | 21.0 | 0.00 | 0.00 | 0.00 | 72 | 1011.2 |
| 20260506060400 | 53 | 30 | 12.0 | 21.0 | 0.00 | 0.00 | 0.00 | 73 | 1011.1 |
| 20260506051359 | 54 | 10 | 9.0 | 9.0 | 0.00 | 0.00 | 0.00 | 73 | 1011.2 |
| 20260506050859 | 54 | 10 | 9.0 | 9.0 | 0.00 | 0.00 | 0.00 | 72 | 1011.2 |
| 20260506050400 | 54 | 10 | 9.0 | 23.0 | 0.00 | 0.00 | 0.00 | 73 | 1011.2 |
| 20260506044900 | 54 | 10 | 10.0 | 23.0 | 0.00 | 0.00 | 0.00 | 73 | 1011.2 |
| 20260506044359 | 54 | 10 | 10.0 | 10.0 | 0.00 | 0.00 | 0.00 | 73 | 1011.2 |
| 20260506043859 | 54 | 10 | 10.0 | 10.0 | 0.00 | 0.00 | 0.00 | 73 | 1011.1 |
| 20260506043400 | 54 | 10 | 10.0 | 10.0 | 0.00 | 0.00 | 0.00 | 73 | 1011.0 |
| 20260506042900 | 54 | 10 | 10.0 | 10.0 | 0.00 | 0.00 | 0.00 | 73 | 1011.0 |
| 20260506042359 | 54 | 10 | 10.0 | 10.0 | 0.00 | 0.00 | 0.00 | 73 | 1011.0 |
| 20260506041900 | 54 | 10 | 10.0 | 10.0 | 0.00 | 0.00 | 0.00 | 73 | 1011.2 |
| 20260506040859 | 54 | 10 | 10.0 | 10.0 | 0.00 | 0.00 | 0.00 | 74 | 1011.2 |
| 20260506040359 | 54 | 10 | 10.0 | 10.0 | 0.00 | 0.00 | 0.00 | 74 | 1011.1 |
| 20260506035900 | 54 | 20 | 10.0 | 10.0 | 0.00 | 0.00 | 0.00 | 74 | 1011.2 |
| 20260506035359 | 54 | 20 | 10.0 | 10.0 | 0.00 | 0.00 | 0.00 | 74 | 1011.2 |
| 20260506034900 | 54 | 20 | 10.0 | 24.0 | 0.00 | 0.00 | 0.00 | 74 | 1011.2 |
| 20260506034400 | 54 | 20 | 14.0 | 24.0 | 0.00 | 0.00 | 0.00 | 74 | 1011.1 |
| 20260506033859 | 54 | 20 | 14.0 | 24.0 | 0.00 | 0.00 | 0.00 | 75 | 1011.0 |
| 20260506033359 | 54 | 20 | 14.0 | 24.0 | 0.00 | 0.00 | 0.00 | 75 | 1010.9 |
| 20260506032900 | 54 | 10 | 14.0 | 21.0 | 0.00 | 0.00 | 0.00 | 75 | 1010.9 |
| 20260506032400 | 54 | 10 | 14.0 | 21.0 | 0.00 | 0.00 | 0.00 | 75 | 1010.6 |
| 20260506031900 | 55 | 10 | 14.0 | 21.0 | 0.00 | 0.00 | 0.00 | 75 | 1010.3 |
| 20260506031359 | 55 | 10 | 14.0 | 21.0 | 0.00 | 0.00 | 0.00 | 75 | 1010.1 |
| 20260506030900 | 55 | 10 | 14.0 | 21.0 | 0.00 | 0.00 | 0.00 | 75 | 1010.1 |
| 20260506030400 | 55 | 10 | 14.0 | 21.0 | 0.00 | 0.00 | 0.00 | 74 | 1009.8 |
| 20260506025900 | 55 | 0 | 13.0 | 13.0 | 0.00 | 0.00 | 0.00 | 74 | 1009.6 |
| 20260506025400 | 55 | 0 | 13.0 | 13.0 | 0.00 | 0.00 | 0.00 | 74 | 1009.5 |
| 20260506024900 | 55 | 0 | 13.0 | 13.0 | 0.00 | 0.00 | 0.00 | 74 | 1009.3 |
| 20260506024400 | 55 | 10 | 10.0 | 10.0 | 0.00 | 0.00 | 0.00 | 74 | 1009.3 |
| 20260506023900 | 56 | 10 | 10.0 | 10.0 | 0.00 | 0.00 | 0.00 | 75 | 1009.3 |
| 20260506022359 | 57 | 0 | 12.0 | 21.0 | 0.00 | 0.00 | 0.00 | 79 | 1009.1 |
| 20260506021859 | 57 | 0 | 12.0 | 21.0 | 0.00 | 0.00 | 0.00 | 79 | 1008.8 |
| 20260506021400 | 57 | 0 | 12.0 | 21.0 | 0.00 | 0.00 | 0.00 | 79 | 1008.7 |
| 20260506020900 | 57 | 0 | 12.0 | 21.0 | 0.00 | 0.00 | 0.00 | 79 | 1008.6 |
| 20260506015900 | 57 | 0 | 10.0 | 18.0 | 0.00 | 0.00 | 0.00 | 79 | 1008.3 |
| 20260506014859 | 57 | 0 | 10.0 | 18.0 | 0.00 | 0.00 | 0.00 | 79 | 1008.0 |
| 20260506014400 | 57 | 10 | 10.0 | 10.0 | 0.00 | 0.00 | 0.00 | 79 | 1008.0 |
| 20260506013900 | 57 | 10 | 10.0 | 10.0 | 0.00 | 0.00 | 0.00 | 79 | 1008.0 |
| 20260506013400 | 57 | 10 | 10.0 | 18.0 | 0.00 | 0.00 | 0.00 | 79 | 1008.1 |
| 20260506012900 | 57 | 10 | 10.0 | 18.0 | 0.00 | 0.00 | 0.00 | 79 | 1007.8 |
| 20260506012400 | 58 | 10 | 10.0 | 18.0 | 0.00 | 0.00 | 0.00 | 78 | 1007.7 |
| 20260506011900 | 58 | 10 | 10.0 | 18.0 | 0.00 | 0.00 | 0.00 | 78 | 1007.7 |
| 20260506011400 | 58 | 10 | 10.0 | 18.0 | 0.00 | 0.00 | 0.00 | 78 | 1007.7 |
| 20260506010900 | 58 | 10 | 10.0 | 18.0 | 0.00 | 0.00 | 0.00 | 78 | 1007.9 |
| 20260506010359 | 58 | 10 | 10.0 | 21.0 | 0.00 | 0.00 | 0.00 | 78 | 1007.6 |
| 20260506005859 | 58 | 0 | 9.0 | 21.0 | 0.00 | 0.00 | 0.00 | 78 | 1007.4 |
| 20260506005400 | 58 | 0 | 9.0 | 21.0 | 0.00 | 0.00 | 0.00 | 78 | 1007.5 |
| 20260506004900 | 59 | 0 | 9.0 | 21.0 | 0.00 | 0.00 | 0.00 | 76 | 1007.5 |
| 20260506004400 | 59 | 0 | 13.0 | 13.0 | 0.00 | 0.00 | 0.00 | 76 | 1007.5 |
| 20260506003400 | 60 | 0 | 13.0 | 20.0 | 0.00 | 0.00 | 0.00 | 76 | 1007.3 |
| 20260506002859 | 60 | 10 | 9.0 | 20.0 | 0.00 | 0.00 | 0.00 | 76 | 1007.0 |
| 20260506002400 | 60 | 10 | 9.0 | 20.0 | 0.00 | 0.00 | 0.00 | 75 | 1007.1 |
| 20260506001359 | 61 | 10 | 9.0 | 20.0 | 0.00 | 0.00 | 0.00 | 75 | 1006.9 |
| 20260506000900 | 61 | 10 | 9.0 | 20.0 | 0.00 | 0.00 | 0.00 | 75 | 1006.9 |
| 20260506000401 | 65 | 10 | 9.0 | 23.0 | 0.00 | 0.00 | 0.00 | 69 | 1006.9 |
| 20260505235400 | 65 | 350 | 13.0 | 23.0 | 0.00 | 0.00 | 0.00 | 69 | 1006.8 |
| 20260505234859 | 65 | 350 | 13.0 | 23.0 | 0.00 | 0.00 | 0.00 | 69 | 1006.7 |
| 20260505234400 | 65 | 330 | 10.0 | 20.0 | 0.00 | 0.00 | 0.00 | 69 | 1006.8 |
| 20260505233400 | 65 | 330 | 10.0 | 21.0 | 0.00 | 0.00 | 0.00 | 69 | 1006.8 |
| 20260505232900 | 65 | 330 | 13.0 | 21.0 | 0.00 | 0.00 | 0.00 | 69 | 1006.7 |
| 20260505232359 | 65 | 330 | 13.0 | 21.0 | 0.00 | 0.00 | 0.00 | 69 | 1006.7 |
| 20260505231400 | 66 | 330 | 13.0 | 21.0 | 0.00 | 0.00 | 0.00 | 68 | 1006.7 |
| 20260505230900 | 67 | 330 | 13.0 | 21.0 | 0.00 | 0.00 | 0.00 | 68 | 1006.5 |
| 20260505230400 | 67 | 330 | 13.0 | 21.0 | 0.00 | 0.00 | 0.00 | 68 | 1006.5 |
| 20260505225400 | 68 | 320 | 10.0 | 20.0 | 0.00 | 0.00 | 0.00 | 67 | 1006.3 |
| 20260505224901 | 68 | 320 | 10.0 | 20.0 | 0.00 | 0.00 | 0.00 | 67 | 1006.2 |
| 20260505224400 | 69 | 320 | 8.0 | 20.0 | 0.00 | 0.00 | 0.00 | 67 | 1006.0 |
| 20260505223900 | 69 | 320 | 8.0 | 20.0 | 0.00 | 0.00 | 0.00 | 68 | 1006.0 |
| 20260505223400 | 69 | 320 | 8.0 | 20.0 | 0.00 | 0.00 | 0.00 | 68 | 1005.9 |
| 20260505222900 | 69 | 340 | 10.0 | 18.0 | 0.00 | 0.00 | 0.00 | 68 | 1005.7 |
| 20260505222400 | 69 | 340 | 10.0 | 18.0 | 0.00 | 0.00 | 0.00 | 68 | 1005.5 |
| 20260505221900 | 69 | 340 | 10.0 | 18.0 | 0.00 | 0.00 | 0.00 | 68 | 1005.3 |
| 20260505221400 | 69 | 340 | 10.0 | 18.0 | 0.00 | 0.00 | 0.00 | 68 | 1005.4 |
| 20260505220900 | 70 | 340 | 10.0 | 18.0 | 0.00 | 0.00 | 0.00 | 67 | 1005.5 |
| 20260505220400 | 70 | 340 | 10.0 | 18.0 | 0.00 | 0.00 | 0.00 | 67 | 1005.4 |
| 20260505215400 | 71 | 310 | 8.0 | 8.0 | 0.00 | 0.00 | 0.00 | 66 | 1005.1 |
| 20260505214900 | 71 | 310 | 8.0 | 8.0 | 0.00 | 0.00 | 0.00 | 66 | 1005.0 |
| 20260505214400 | 72 | 320 | 8.0 | 8.0 | 0.00 | 0.00 | 0.00 | 65 | 1005.0 |
| 20260505213400 | 73 | 320 | 8.0 | 10.0 | 0.00 | 0.00 | 0.00 | 65 | 1004.9 |
| 20260505212900 | 73 | 320 | 10.0 | 10.0 | 0.00 | 0.00 | 0.00 | 65 | 1004.8 |
| 20260505211400 | 74 | 320 | 10.0 | 10.0 | 0.00 | 0.00 | 0.00 | 64 | 1004.6 |
| 20260505210900 | 74 | 320 | 10.0 | 10.0 | 0.00 | 0.00 | 0.00 | 64 | 1004.5 |
| 20260505210400 | 74 | 320 | 10.0 | 20.0 | 0.00 | 0.00 | 0.00 | 65 | 1004.6 |
| 20260505205900 | 75 | 300 | 9.0 | 20.0 | 0.00 | 0.00 | 0.00 | 64 | 1004.6 |
| 20260505204400 | 75 | 300 | 9.0 | 9.0 | 0.00 | 0.00 | 0.00 | 65 | 1004.5 |
| 20260505203900 | 76 | 300 | 9.0 | 9.0 | 0.00 | 0.00 | 0.00 | 64 | 1004.4 |
| 20260505203400 | 76 | 300 | 9.0 | 9.0 | 0.00 | 0.00 | 0.00 | 64 | 1004.4 |
| 20260505202900 | 76 | 300 | 8.0 | 8.0 | 0.00 | 0.00 | 0.00 | 63 | 1004.5 |
| 20260505202400 | 77 | 300 | 8.0 | 8.0 | 0.00 | 0.00 | 0.00 | 61 | 1004.4 |
| 20260505201900 | 77 | 300 | 8.0 | 8.0 | 0.00 | 0.00 | 0.00 | 60 | 1004.4 |
| 20260505201400 | 78 | 300 | 8.0 | 8.0 | 0.00 | 0.00 | 0.00 | 58 | 1004.2 |
| 20260505200900 | 79 | 300 | 8.0 | 8.0 | 0.00 | 0.00 | 0.00 | 57 | 1004.2 |
| 20260505200400 | 80 | 300 | 8.0 | 10.0 | 0.00 | 0.00 | 0.00 | 55 | 1004.1 |
| 20260505195900 | 80 | 250 | 10.0 | 10.0 | 0.00 | 0.00 | 0.00 | 52 | 1004.0 |
| 20260505195400 | 80 | 250 | 10.0 | 10.0 | 0.00 | 0.00 | 0.00 | 45 | 1003.9 |
| 20260505194901 | 81 | 250 | 10.0 | 10.0 | 0.00 | 0.00 | 0.00 | 42 | 1003.7 |
| 20260505194400 | 81 | 290 | 9.0 | 9.0 | 0.00 | 0.00 | 0.00 | 41 | 1003.7 |
| 20260505193900 | 82 | 290 | 9.0 | 9.0 | 0.00 | 0.00 | 0.00 | 39 | 1003.7 |
| 20260505192900 | 83 | 290 | 10.0 | 10.0 | 0.00 | 0.00 | 0.00 | 42 | 1003.5 |
| 20260505192400 | 83 | 290 | 10.0 | 10.0 | 0.00 | 0.00 | 0.00 | 41 | 1003.5 |
| 20260505190901 | 83 | 290 | 10.0 | 10.0 | 0.00 | 0.00 | 0.00 | 44 | 1003.5 |
| 20260505190400 | 83 | 290 | 10.0 | 10.0 | 0.00 | 0.00 | 0.00 | 42 | 1003.5 |
| 20260505185900 | 83 | 260 | 8.0 | 8.0 | 0.00 | 0.00 | 0.00 | 44 | 1003.4 |
| 20260505185400 | 84 | 260 | 8.0 | 8.0 | 0.00 | 0.00 | 0.00 | 45 | 1003.1 |
| 20260505184900 | 84 | 260 | 8.0 | 23.0 | 0.00 | 0.00 | 0.00 | 49 | 1002.9 |
| 20260505184400 | 84 | 240 | 14.0 | 23.0 | 0.00 | 0.00 | 0.00 | 52 | 1003.0 |
| 20260505183900 | 84 | 240 | 14.0 | 23.0 | 0.00 | 0.00 | 0.00 | 52 | 1002.9 |
| 20260505183400 | 84 | 240 | 14.0 | 23.0 | 0.00 | 0.00 | 0.00 | 54 | 1002.9 |
| 20260505182400 | 83 | 220 | 8.0 | 8.0 | 0.00 | 0.00 | 0.00 | 55 | 1003.0 |
| 20260505181900 | 83 | 220 | 8.0 | 8.0 | 0.00 | 0.00 | 0.00 | 56 | 1003.1 |
| 20260505181401 | 83 | 220 | 8.0 | 8.0 | 0.00 | 0.00 | 0.00 | 58 | 1003.2 |
| 20260505180900 | 82 | 220 | 8.0 | 8.0 | 0.00 | 0.00 | 0.00 | 60 | 1003.0 |
| 20260505180401 | 82 | 220 | 8.0 | 10.0 | 0.00 | 0.00 | 0.00 | 56 | 1002.9 |
| 20260505175900 | 82 | 240 | 10.0 | 10.0 | 0.00 | 0.00 | 0.00 | 59 | 1002.7 |
| 20260505174400 | 81 | 230 | 8.0 | 8.0 | 0.00 | 0.00 | 0.00 | 61 | 1002.8 |
| 20260505173400 | 80 | 230 | 8.0 | 8.0 | 0.00 | 0.00 | 0.00 | 63 | 1002.9 |
| 20260505172900 | 80 | 210 | 6.0 | 6.0 | 0.00 | 0.00 | 0.00 | 65 | 1002.7 |
| 20260505171900 | 80 | 210 | 6.0 | 6.0 | 0.00 | 0.00 | 0.00 | 65 | 1002.8 |
| 20260505170900 | 79 | 210 | 6.0 | 6.0 | 0.00 | 0.00 | 0.00 | 67 | 1003.0 |
| 20260505165901 | 79 | 200 | 7.0 | 7.0 | 0.00 | 0.00 | 0.00 | 70 | 1002.9 |
| 20260505165401 | 75 | 200 | 7.0 | 7.0 | 0.00 | 0.00 | 0.00 | 66 | 1003.0 |
| 20260505164900 | 75 | 200 | 7.0 | 9.0 | 0.00 | 0.00 | 0.00 | 66 | 1002.5 |
| 20260505164401 | 75 | 210 | 9.0 | 9.0 | 0.00 | 0.00 | 0.00 | 66 | 1002.6 |
| 20260505163900 | 75 | 210 | 9.0 | 9.0 | 0.00 | 0.00 | 0.00 | 66 | 1002.7 |
| 20260505163400 | 75 | 210 | 9.0 | 10.0 | 0.00 | 0.00 | 0.00 | 66 | 1002.6 |
| 20260505162901 | 75 | 200 | 10.0 | 10.0 | 0.00 | 0.00 | 0.00 | 66 | 1002.7 |
| 20260505162400 | 75 | 200 | 10.0 | 10.0 | 0.00 | 0.00 | 0.00 | 66 | 1002.5 |
| 20260505161901 | 75 | 200 | 10.0 | 10.0 | 0.00 | 0.00 | 0.00 | 66 | 1002.5 |
| 20260505161401 | 75 | 200 | 10.0 | 10.0 | 0.00 | 0.00 | 0.00 | 66 | 1002.4 |
| 20260505160400 | 75 | 200 | 10.0 | 23.0 | 0.00 | 0.00 | 0.00 | 66 | 1002.3 |
| 20260505152401 | 75 | 200 | 10.0 | 10.0 | 0.00 | 0.00 | 0.00 | 66 | 1001.9 |
| 20260505151900 | 75 | 200 | 10.0 | 10.0 | 0.00 | 0.00 | 0.00 | 66 | 1001.8 |
| 20260505150901 | 75 | 200 | 10.0 | 10.0 | 0.00 | 0.00 | 0.00 | 66 | 1001.9 |
| 20260505150400 | 75 | 200 | 10.0 | 10.0 | 0.00 | 0.00 | 0.00 | 66 | 1001.9 |
| 20260505140401 | 75 | 180 | 8.0 | 9.0 | 0.00 | 0.00 | 0.00 | 66 | 1001.8 |
| 20260505124901 | 75 | 190 | 12.0 | 12.0 | 0.00 | 0.00 | 0.00 | 66 | 1001.8 |
| 20260505124401 | 75 | 190 | 9.0 | 9.0 | 0.00 | 0.00 | 0.00 | 66 | 1001.9 |
| 20260505123901 | 75 | 190 | 9.0 | 9.0 | 0.00 | 0.00 | 0.00 | 66 | 1001.9 |
| 20260505123401 | 75 | 190 | 9.0 | 9.0 | 0.00 | 0.00 | 0.00 | 66 | 1001.8 |
| 20260505122900 | 75 | 190 | 8.0 | 8.0 | 0.00 | 0.00 | 0.00 | 66 | 1001.7 |
| 20260505122401 | 75 | 190 | 8.0 | 8.0 | 0.00 | 0.00 | 0.00 | 66 | 1001.5 |
| 20260505121901 | 75 | 190 | 8.0 | 8.0 | 0.00 | 0.00 | 0.00 | 66 | 1001.5 |
| 20260505121400 | 75 | 190 | 8.0 | 8.0 | 0.00 | 0.00 | 0.00 | 66 | 1001.4 |
| 20260505120900 | 75 | 190 | 8.0 | 8.0 | 0.00 | 0.00 | 0.00 | 66 | 1001.3 |
| 20260505120401 | 75 | 190 | 8.0 | 10.0 | 0.00 | 0.00 | 0.00 | 66 | 1001.3 |
| 20260505115901 | 75 | 180 | 10.0 | 10.0 | 0.00 | 0.00 | 0.00 | 66 | 1001.3 |
| 20260505115401 | 75 | 180 | 10.0 | 10.0 | 0.00 | 0.00 | 0.00 | 66 | 1001.2 |
| 20260505114901 | 75 | 180 | 10.0 | 10.0 | 0.00 | 0.00 | 0.00 | 66 | 1001.1 |
| 20260505114400 | 75 | 180 | 9.0 | 9.0 | 0.00 | 0.00 | 0.00 | 66 | 1001.0 |
| 20260505113900 | 75 | 180 | 9.0 | 9.0 | 0.00 | 0.00 | 0.00 | 66 | 1001.0 |
| 20260505113400 | 75 | 180 | 9.0 | 9.0 | 0.00 | 0.00 | 0.00 | 66 | 1001.0 |
| 20260505112900 | 75 | 190 | 9.0 | 9.0 | 0.00 | 0.00 | 0.00 | 66 | 1001.1 |
| 20260505112401 | 75 | 190 | 9.0 | 9.0 | 0.00 | 0.00 | 0.00 | 66 | 1001.0 |
| 20260505111900 | 75 | 190 | 9.0 | 9.0 | 0.00 | 0.00 | 0.00 | 66 | 1001.0 |
| 20260505110400 | 75 | 190 | 9.0 | 18.0 | 0.00 | 0.00 | 0.00 | 66 | 1001.1 |
| 20260505101901 | 75 | 180 | 10.0 | 10.0 | 0.00 | 0.00 | 0.00 | 66 | 1001.0 |
| 20260505101401 | 75 | 180 | 9.0 | 9.0 | 0.00 | 0.00 | 0.00 | 66 | 1001.1 |
| 20260505100901 | 75 | 180 | 9.0 | 9.0 | 0.00 | 0.00 | 0.00 | 66 | 1001.2 |
| 20260505100400 | 75 | 180 | 9.0 | 9.0 | 0.00 | 0.00 | 0.00 | 66 | 1001.2 |
| 20260505095901 | 75 | 180 | 9.0 | 9.0 | 0.00 | 0.00 | 0.00 | 66 | 1001.2 |
| 20260505094901 | 75 | 180 | 9.0 | 10.0 | 0.00 | 0.00 | 0.00 | 66 | 1001.2 |
| 20260505094400 | 75 | 190 | 10.0 | 10.0 | 0.00 | 0.00 | 0.00 | 66 | 1001.2 |
| 20260505093901 | 75 | 190 | 10.0 | 10.0 | 0.00 | 0.00 | 0.00 | 66 | 1001.1 |
| 20260505093400 | 75 | 190 | 10.0 | 10.0 | 0.00 | 0.00 | 0.00 | 66 | 1001.0 |
| 20260505092900 | 75 | 190 | 8.0 | 8.0 | 0.00 | 0.00 | 0.00 | 66 | 1001.0 |
| 20260505092400 | 75 | 190 | 8.0 | 8.0 | 0.00 | 0.00 | 0.00 | 66 | 1001.1 |
| 20260505091901 | 75 | 190 | 8.0 | 8.0 | 0.00 | 0.00 | 0.00 | 66 | 1001.3 |
| 20260505091401 | 75 | 190 | 8.0 | 8.0 | 0.00 | 0.00 | 0.00 | 66 | 1001.3 |
| 20260505090401 | 75 | 190 | 8.0 | 18.0 | 0.00 | 0.00 | 0.00 | 66 | 1001.2 |
| 20260505085900 | 75 | 190 | 10.0 | 18.0 | 0.00 | 0.00 | 0.00 | 66 | 1001.2 |
| 20260505085401 | 75 | 190 | 10.0 | 18.0 | 0.00 | 0.00 | 0.00 | 66 | 1001.3 |
| 20260505084901 | 75 | 190 | 10.0 | 20.0 | 0.00 | 0.00 | 0.00 | 66 | 1001.3 |
| 20260505084400 | 75 | 190 | 13.0 | 20.0 | 0.00 | 0.00 | 0.00 | 66 | 1001.2 |
| 20260505083901 | 75 | 190 | 13.0 | 20.0 | 0.00 | 0.00 | 0.00 | 66 | 1001.1 |
| 20260505083400 | 75 | 190 | 13.0 | 20.0 | 0.00 | 0.00 | 0.00 | 66 | 1001.1 |
| 20260505082901 | 75 | 190 | 13.0 | 13.0 | 0.00 | 0.00 | 0.00 | 66 | 1001.1 |
| 20260505082401 | 75 | 190 | 13.0 | 13.0 | 0.00 | 0.00 | 0.00 | 66 | 1001.1 |
| 20260505081401 | 75 | 190 | 13.0 | 13.0 | 0.00 | 0.00 | 0.00 | 66 | 1001.1 |
| 20260505080901 | 75 | 190 | 13.0 | 13.0 | 0.00 | 0.00 | 0.00 | 66 | 1001.2 |
| 20260505080401 | 75 | 190 | 13.0 | 24.0 | 0.00 | 0.00 | 0.00 | 66 | 1001.2 |
| 20260505075901 | 75 | 190 | 15.0 | 24.0 | 0.00 | 0.00 | 0.00 | 66 | 1001.3 |
| 20260505075401 | 75 | 190 | 15.0 | 24.0 | 0.00 | 0.00 | 0.00 | 66 | 1001.3 |
| 20260505074901 | 75 | 190 | 15.0 | 24.0 | 0.00 | 0.00 | 0.00 | 66 | 1001.4 |
| 20260505074400 | 75 | 190 | 15.0 | 24.0 | 0.00 | 0.00 | 0.00 | 66 | 1001.5 |
| 20260505073900 | 75 | 190 | 15.0 | 24.0 | 0.00 | 0.00 | 0.00 | 66 | 1001.5 |
| 20260505073401 | 75 | 190 | 15.0 | 28.0 | 0.00 | 0.00 | 0.00 | 66 | 1001.6 |
| 20260505072901 | 75 | 190 | 13.0 | 28.0 | 0.00 | 0.00 | 0.00 | 66 | 1001.8 |
| 20260505072401 | 75 | 190 | 13.0 | 28.0 | 0.00 | 0.00 | 0.00 | 66 | 1001.9 |
| 20260505071900 | 75 | 190 | 13.0 | 28.0 | 0.00 | 0.00 | 0.00 | 66 | 1002.0 |
| 20260505071401 | 75 | 190 | 13.0 | 28.0 | 0.00 | 0.00 | 0.00 | 66 | 1002.1 |
| 20260505070901 | 75 | 190 | 13.0 | 28.0 | 0.00 | 0.00 | 0.00 | 66 | 1002.2 |
| 20260505070401 | 75 | 190 | 13.0 | 28.0 | 0.00 | 0.00 | 0.00 | 66 | 1002.2 |
| 20260505065901 | 75 | 190 | 12.0 | 23.0 | 0.00 | 0.00 | 0.00 | 66 | 1002.4 |